Flag for Colombia Weather past 2 weeks in Medellin, Colombia

Now
57 °F

Drizzle. Mostly cloudy.


Feels Like: 57 °F
Forecast: 64 / 81 °F
Wind: 2 mph from North

Location: Rionegro / J. M. Cordova

Current Time: Feb 1, 2015 at 4:45:50 AM

Latest Report: Feb 1, 2015 at 4:00 AM


Visibility: 5 mi

Pressure: 30.25 "Hg

Humidity: 94%

Dew point: 55 °F

Location of MedellinLocation

Historic Weather in Medellin — Graph

°F

Medellin temperature yesterday

Maximum temperature yesterday: 72 °F (at 2:00 PM)
Minimum temperature yesterday: 55 °F (at 5:00 AM)
Average temperature yesterday: 62 °F

Past Weeks' High & Low Weather Summary

 TemperatureHumidityPressure
High86 °F (Jan 29, 4:00 PM)100% (Jan 17, 5:00 AM)30.38 "Hg (Jan 17, 5:00 AM)
Low52 °F (Jan 28, 7:00 AM)44% (Jan 20, 3:00 PM)29.69 "Hg (Jan 29, 4:00 PM)
Average62 °F83%30.27 "Hg
* Reported Jan 17 3:00 AM — Feb 1 3:00 AM, Medellin, Weather by CustomWeather, © 2014

Note: Actual official high and low records may vary slightly from our data, if they occured in-between our weather recording intervals... More about our weather records

Advertising

Medellin weather history for previous 24 hours

 ConditionsComfort  
Time TempWeatherWind HumidityBarometerVisibility
3:00 AM
Feb 1
59 °FLight rain. Partly cloudy.5 mph94%30.26 "Hg4 mi
2:00 AM59 °FPartly cloudy.5 mph94%30.26 "Hg4 mi
1:00 AM59 °FPartly cloudy.No wind94%30.27 "Hg4 mi
12:00 AM61 °FPartly cloudy.2 mph94%30.29 "Hg4 mi
11:00 PM
Jan 31
61 °FPassing clouds.No wind94%30.30 "HgN/A
10:00 PM61 °FPassing clouds.5 mph94%30.30 "HgN/A
9:00 PM61 °FPassing clouds.No wind94%30.27 "HgN/A
8:00 PM63 °FPassing clouds.2 mph88%30.25 "HgN/A
7:00 PM63 °FPassing clouds.6 mph83%30.23 "HgN/A
6:00 PM66 °FScattered clouds.8 mph68%30.20 "HgN/A
5:00 PM68 °FPartly sunny.13 mph64%30.19 "HgN/A
4:00 PM72 °FScattered clouds.18 mph53%30.19 "HgN/A
3:00 PM72 °FScattered clouds.14 mph53%30.20 "HgN/A
2:00 PM72 °FBroken clouds.12 mph53%30.22 "HgN/A
1:00 PM70 °FBroken clouds.14 mph57%30.26 "HgN/A
12:00 PM68 °FBroken clouds.12 mph64%30.28 "HgN/A
11:00 AM66 °FScattered clouds.No wind68%30.29 "HgN/A
10:00 AM63 °FBroken clouds.No wind77%30.31 "HgN/A
9:00 AM59 °FBroken clouds.No wind94%30.32 "HgN/A
8:00 AM57 °FFog.No wind94%30.31 "HgN/A
7:00 AM55 °FFog.No wind94%30.27 "HgN/A
6:00 AM55 °FFog.No wind94%30.25 "Hg2 mi
5:00 AM55 °FFog.No wind94%30.24 "Hg2 mi
4:00 AM57 °FFog.No wind94%30.22 "Hg4 mi
Weather by CustomWeather, © 2014

See weather overviewHow to use our weather pages